owner,sensor,date,latitude,longitude,vertical_datum,wind_speed,wind_to_direction,wind_speed_of_gust,qcFlag 
TABS,ioos:station:wmo:42046:1,2016-09-01T00:00:00Z,27.8903,-94.0367,4.0,4.467225089,39.64105004,5.28,'11111222,11111222,11111222' 
TABS,ioos:station:wmo:42046:1,2016-09-01T00:30:00Z,27.8903,-94.0367,4.0,4.401647419,41.03867541,5.37,'11111222,11111222,11111222' 
TABS,ioos:station:wmo:42046:1,2016-09-01T01:00:00Z,27.8903,-94.0367,4.0,4.127420502,34.53682961,4.82,'11111222,11111222,11111222' 
TABS,ioos:station:wmo:42046:1,2016-09-01T01:30:00Z,27.8903,-94.0367,4.0,3.787268145,38.35235842,4.55,'11111222,11111222,11111222' 
TABS,ioos:station:wmo:42046:1,2016-09-01T02:00:00Z,27.8903,-94.0367,4.0,3.431850813,40.74585782,4.61,'11111222,11111222,11111222' 
TABS,ioos:station:wmo:42046:1,2016-09-01T02:30:00Z,27.8903,-94.0367,4.0,3.269801217,18.54551842,4.02,'11111222,11111222,11111222' 
TABS,ioos:station:wmo:42046:1,2016-09-01T03:00:00Z,27.8903,-94.0367,4.0,3.464823228,8.129872884,4.56,'11111222,11111222,11111222' 
TABS,ioos:station:wmo:42046:1,2016-09-01T03:30:00Z,27.8903,-94.0367,4.0,3.314890647,3.112498883,4.08,'11111222,11111222,11111222' 
TABS,ioos:station:wmo:42046:1,2016-09-01T04:00:00Z,27.8903,-94.0367,4.0,3.471973502,347.524709,4.22,'11111222,11111222,11111222' 
TABS,ioos:station:wmo:42046:1,2016-09-01T04:30:00Z,27.8903,-94.0367,4.0,3.976895774,343.3419829,4.57,'11111222,11111222,11111222' 
TABS,ioos:station:wmo:42046:1,2016-09-01T05:00:00Z,27.8903,-94.0367,4.0,4.911048768,339.4984117,5.85,'11111222,11111222,11111222' 
TABS,ioos:station:wmo:42046:1,2016-09-01T05:30:00Z,27.8903,-94.0367,4.0,5.241087673,331.1363797,6.22,'11111222,11111222,11111222' 
TABS,ioos:station:wmo:42046:1,2016-09-01T06:00:00Z,27.8903,-94.0367,4.0,5.583994986,329.0712993,6.57,'11111222,11111222,11111222' 
TABS,ioos:station:wmo:42046:1,2016-09-01T06:30:00Z,27.8903,-94.0367,4.0,5.952419676,333.3487064,7.09,'11111222,11111222,11111222' 
TABS,ioos:station:wmo:42046:1,2016-09-01T07:00:00Z,27.8903,-94.0367,4.0,6.377279984,333.5553381,7.96,'11111222,11111222,11111222' 
TABS,ioos:station:wmo:42046:1,2016-09-01T07:30:00Z,27.8903,-94.0367,4.0,6.168087224,339.3024562,7.38,'11111222,11111222,11111222' 
TABS,ioos:station:wmo:42046:1,2016-09-01T08:00:00Z,27.8903,-94.0367,4.0,6.556683613,342.6979351,8.1,'11111222,11111222,11111222' 
TABS,ioos:station:wmo:42046:1,2016-09-01T08:30:00Z,27.8903,-94.0367,4.0,6.404568682,340.5746873,7.45,'11111222,11111222,11111222' 
TABS,ioos:station:wmo:42046:1,2016-09-01T09:00:00Z,27.8903,-94.0367,4.0,6.359009357,343.2746939,7.51,'11111222,11111222,11111222' 
TABS,ioos:station:wmo:42046:1,2016-09-01T09:30:00Z,27.8903,-94.0367,4.0,5.861074987,351.0678407,6.92,'11111222,11111222,11111222' 
TABS,ioos:station:wmo:42046:1,2016-09-01T10:00:00Z,27.8903,-94.0367,4.0,5.543663049,353.6824396,6.61,'11111222,11111222,11111222' 
TABS,ioos:station:wmo:42046:1,2016-09-01T10:30:00Z,27.8903,-94.0367,4.0,5.923799456,349.7901282,6.92,'11111222,11111222,11111222' 
TABS,ioos:station:wmo:42046:1,2016-09-01T11:00:00Z,27.8903,-94.0367,4.0,5.474093532,353.60182,6.47,'11111222,11111222,11111222' 
TABS,ioos:station:wmo:42046:1,2016-09-01T11:30:00Z,27.8903,-94.0367,4.0,5.891909707,358.5409628,7.1,'11111222,11111222,11111222' 
TABS,ioos:station:wmo:42046:1,2016-09-01T12:00:00Z,27.8903,-94.0367,4.0,5.641994328,358.4763283,6.9,'11111222,11111222,11111222' 
TABS,ioos:station:wmo:42046:1,2016-09-01T12:30:00Z,27.8903,-94.0367,4.0,5.325410782,357.4167749,6.71,'11111222,11111222,11111222' 
TABS,ioos:station:wmo:42046:1,2016-09-01T13:00:00Z,27.8903,-94.0367,4.0,5.190086704,0.330974555,6.4,'11111222,11111222,11111222' 
TABS,ioos:station:wmo:42046:1,2016-09-01T13:30:00Z,27.8903,-94.0367,4.0,4.894088271,357.6577147,5.65,'11111222,11111222,11111222' 
TABS,ioos:station:wmo:42046:1,2016-09-01T14:00:00Z,27.8903,-94.0367,4.0,4.471465084,4.103655417,5.47,'11111222,11111222,11111222' 
TABS,ioos:station:wmo:42046:1,2016-09-01T14:30:00Z,27.8903,-94.0367,4.0,4.543886002,7.969381299,5.36,'11111222,11111222,11111222' 
TABS,ioos:station:wmo:42046:1,2016-09-01T15:00:00Z,27.8903,-94.0367,4.0,4.596574812,4.866935148,5.61,'11111222,11111222,11111222' 
TABS,ioos:station:wmo:42046:1,2016-09-01T15:30:00Z,27.8903,-94.0367,4.0,4.671327434,7.626835939,5.36,'11111222,11111222,11111222' 
TABS,ioos:station:wmo:42046:1,2016-09-01T16:00:00Z,27.8903,-94.0367,4.0,4.649913978,11.28553039,5.5,'11111222,11111222,11111222' 
TABS,ioos:station:wmo:42046:1,2016-09-01T16:30:00Z,27.8903,-94.0367,4.0,4.689840083,7.473317024,5.4,'11111222,11111222,11111222' 
TABS,ioos:station:wmo:42046:1,2016-09-01T17:00:00Z,27.8903,-94.0367,4.0,4.934328728,15.27524073,5.61,'11111222,11111222,11111222' 
TABS,ioos:station:wmo:42046:1,2016-09-01T17:30:00Z,27.8903,-94.0367,4.0,4.956137609,10.69753745,5.91,'11111222,11111222,11111222' 
TABS,ioos:station:wmo:42046:1,2016-09-01T18:00:00Z,27.8903,-94.0367,4.0,5.199201862,11.76355577,6.05,'11111222,11111222,11111222' 
TABS,ioos:station:wmo:42046:1,2016-09-01T18:30:00Z,27.8903,-94.0367,4.0,5.030795166,12.04679186,5.84,'11111222,11111222,11111222' 
TABS,ioos:station:wmo:42046:1,2016-09-01T19:00:00Z,27.8903,-94.0367,4.0,5.214834609,10.94338767,6.32,'11111222,11111222,11111222' 
TABS,ioos:station:wmo:42046:1,2016-09-01T19:30:00Z,27.8903,-94.0367,4.0,5.097420917,10.62632474,6.11,'11111222,11111222,11111222' 
TABS,ioos:station:wmo:42046:1,2016-09-01T20:00:00Z,27.8903,-94.0367,4.0,4.669047012,9.865573414,5.7,'11111222,11111222,11111222' 
TABS,ioos:station:wmo:42046:1,2016-09-01T20:30:00Z,27.8903,-94.0367,4.0,5.02637046,12.87476099,5.71,'11111222,11111222,11111222' 
TABS,ioos:station:wmo:42046:1,2016-09-01T21:00:00Z,27.8903,-94.0367,4.0,4.732071428,14.56459699,5.62,'11111222,11111222,11111222' 
TABS,ioos:station:wmo:42046:1,2016-09-01T21:30:00Z,27.8903,-94.0367,4.0,4.854327966,17.87482077,5.85,'11111222,11111222,11111222' 
TABS,ioos:station:wmo:42046:1,2016-09-01T22:00:00Z,27.8903,-94.0367,4.0,4.711899829,18.81922402,5.6,'11111222,11111222,11111222' 
TABS,ioos:station:wmo:42046:1,2016-09-01T22:30:00Z,27.8903,-94.0367,4.0,4.098206925,6.725945839,4.76,'11111222,11111222,11111222' 
TABS,ioos:station:wmo:42046:1,2016-09-01T23:00:00Z,27.8903,-94.0367,4.0,3.967266061,3.46801069,4.72,'11111222,11111222,11111222' 
TABS,ioos:station:wmo:42046:1,2016-09-01T23:30:00Z,27.8903,-94.0367,4.0,4.031004838,1.279132242,4.8,'11111222,11111222,11111222' 
TABS,ioos:station:wmo:42046:1,2016-09-02T00:00:00Z,27.8903,-94.0367,4.0,3.800473655,0.90438246,4.54,'11111222,11111222,11111222' 
TABS,ioos:station:wmo:42046:1,2016-09-02T00:30:00Z,27.8903,-94.0367,4.0,3.840325507,0.745784435,4.85,'11111222,11111222,11111222' 
TABS,ioos:station:wmo:42046:1,2016-09-02T01:00:00Z,27.8903,-94.0367,4.0,3.69001355,0.155061913,4.65,'11111222,11111222,11111222' 
TABS,ioos:station:wmo:42046:1,2016-09-02T01:30:00Z,27.8903,-94.0367,4.0,3.496312343,3.443226694,4.16,'11111222,11111222,11111222' 
TABS,ioos:station:wmo:42046:1,2016-09-02T02:00:00Z,27.8903,-94.0367,4.0,2.871741632,358.0042329,3.53,'11111222,11111222,11111222' 
TABS,ioos:station:wmo:42046:1,2016-09-02T02:30:00Z,27.8903,-94.0367,4.0,2.872646863,352.8005727,3.42,'11111222,11111222,11111222' 
TABS,ioos:station:wmo:42046:1,2016-09-02T03:00:00Z,27.8903,-94.0367,4.0,2.973550067,345.5897138,3.65,'11111222,11111222,11111222' 
TABS,ioos:station:wmo:42046:1,2016-09-02T03:30:00Z,27.8903,-94.0367,4.0,3.703457844,334.4034751,4.65,'11111222,11111222,11111222' 
TABS,ioos:station:wmo:42046:1,2016-09-02T04:00:00Z,27.8903,-94.0367,4.0,3.350940167,336.8012533,4.41,'11111222,11111222,11111222' 
TABS,ioos:station:wmo:42046:1,2016-09-02T04:30:00Z,27.8903,-94.0367,4.0,2.916779045,339.9495996,3.58,'11111222,11111222,11111222' 
TABS,ioos:station:wmo:42046:1,2016-09-02T05:00:00Z,27.8903,-94.0367,4.0,3.105382424,341.798266,3.98,'11111222,11111222,11111222' 
TABS,ioos:station:wmo:42046:1,2016-09-02T05:30:00Z,27.8903,-94.0367,4.0,2.951152317,342.8542787,3.74,'11111222,11111222,11111222' 
TABS,ioos:station:wmo:42046:1,2016-09-02T06:00:00Z,27.8903,-94.0367,4.0,2.31758495,338.7493337,2.97,'11111222,11111222,11111222' 
TABS,ioos:station:wmo:42046:1,2016-09-02T06:30:00Z,27.8903,-94.0367,4.0,2.628554736,321.952836,3.21,'11111222,11111222,11111222' 
TABS,ioos:station:wmo:42046:1,2016-09-02T07:00:00Z,27.8903,-94.0367,4.0,2.773175076,328.717209,3.39,'11111222,11111222,11111222' 
TABS,ioos:station:wmo:42046:1,2016-09-02T07:30:00Z,27.8903,-94.0367,4.0,2.956552046,326.3098008,3.58,'11111222,11111222,11111222' 
TABS,ioos:station:wmo:42046:1,2016-09-02T08:00:00Z,27.8903,-94.0367,4.0,2.708154353,320.844447,3.27,'11111222,11111222,11111222' 
TABS,ioos:station:wmo:42046:1,2016-09-02T08:30:00Z,27.8903,-94.0367,4.0,2.683076592,350.9938789,3.31,'11111222,11111222,11111222' 
TABS,ioos:station:wmo:42046:1,2016-09-02T09:00:00Z,27.8903,-94.0367,4.0,3.584815197,345.4596383,4.44,'11111222,11111222,11111222' 
TABS,ioos:station:wmo:42046:1,2016-09-02T09:30:00Z,27.8903,-94.0367,4.0,4.939068738,7.211121126,5.93,'11111222,11111222,11111222' 
TABS,ioos:station:wmo:42046:1,2016-09-02T10:00:00Z,27.8903,-94.0367,4.0,5.240696519,17.43203738,6.55,'11111222,11111222,11111222' 
TABS,ioos:station:wmo:42046:1,2016-09-02T10:30:00Z,27.8903,-94.0367,4.0,4.781401468,18.66205773,5.92,'11111222,11111222,11111222' 
TABS,ioos:station:wmo:42046:1,2016-09-02T11:00:00Z,27.8903,-94.0367,4.0,5.210239918,23.16944696,6.09,'11111222,11111222,11111222' 
TABS,ioos:station:wmo:42046:1,2016-09-02T11:30:00Z,27.8903,-94.0367,4.0,5.196652769,26.76200896,6.22,'11111222,11111222,11111222' 
TABS,ioos:station:wmo:42046:1,2016-09-02T12:00:00Z,27.8903,-94.0367,4.0,5.04913854,38.88989384,6.01,'11111222,11111222,11111222' 
TABS,ioos:station:wmo:42046:1,2016-09-02T12:30:00Z,27.8903,-94.0367,4.0,5.180965161,42.49655039,6.09,'11111222,11111222,11111222' 
TABS,ioos:station:wmo:42046:1,2016-09-02T13:00:00Z,27.8903,-94.0367,4.0,5.781219595,40.43974489,6.76,'11111222,11111222,11111222' 
TABS,ioos:station:wmo:42046:1,2016-09-02T13:30:00Z,27.8903,-94.0367,4.0,5.366153185,51.50661177,6.74,'11111222,11111222,11111222' 
TABS,ioos:station:wmo:42046:1,2016-09-02T14:00:00Z,27.8903,-94.0367,4.0,6.112871666,50.84215992,7.15,'11111222,11111222,11111222' 
TABS,ioos:station:wmo:42046:1,2016-09-02T14:30:00Z,27.8903,-94.0367,4.0,5.666268613,56.22545582,6.58,'11111222,11111222,11111222' 
TABS,ioos:station:wmo:42046:1,2016-09-02T15:00:00Z,27.8903,-94.0367,4.0,4.684709169,55.69900267,5.45,'11111222,11111222,11111222' 
TABS,ioos:station:wmo:42046:1,2016-09-02T15:30:00Z,27.8903,-94.0367,4.0,4.661941656,49.78496582,5.51,'11111222,11111222,11111222' 
TABS,ioos:station:wmo:42046:1,2016-09-02T16:00:00Z,27.8903,-94.0367,4.0,4.034017848,52.95932995,4.78,'11111222,11111222,11111222' 
TABS,ioos:station:wmo:42046:1,2016-09-02T16:30:00Z,27.8903,-94.0367,4.0,3.512036446,52.86874146,4.16,'11111222,11111222,11111222' 
TABS,ioos:station:wmo:42046:1,2016-09-02T17:00:00Z,27.8903,-94.0367,4.0,3.330840735,45.85114927,4.39,'11111222,11111222,11111222' 
TABS,ioos:station:wmo:42046:1,2016-09-02T17:30:00Z,27.8903,-94.0367,4.0,3.29206622,47.83135473,4.2,'11111222,11111222,11111222' 
TABS,ioos:station:wmo:42046:1,2016-09-02T18:00:00Z,27.8903,-94.0367,4.0,3.157530681,47.823638,4.2,'11111222,11111222,11111222' 
TABS,ioos:station:wmo:42046:1,2016-09-02T18:30:00Z,27.8903,-94.0367,4.0,2.796140197,37.44335793,3.57,'11111222,11111222,11111222' 
TABS,ioos:station:wmo:42046:1,2016-09-02T19:00:00Z,27.8903,-94.0367,4.0,2.817800561,27.47415692,3.72,'11111222,11111222,11111222' 
TABS,ioos:station:wmo:42046:1,2016-09-02T19:30:00Z,27.8903,-94.0367,4.0,3.150936369,34.39585085,3.93,'11111222,11111222,11111222' 
TABS,ioos:station:wmo:42046:1,2016-09-02T20:00:00Z,27.8903,-94.0367,4.0,3.706008635,38.75608656,4.51,'11111222,11111222,11111222' 
TABS,ioos:station:wmo:42046:1,2016-09-02T20:30:00Z,27.8903,-94.0367,4.0,3.567422038,40.56614848,4.31,'11111222,11111222,11111222' 
TABS,ioos:station:wmo:42046:1,2016-09-02T21:00:00Z,27.8903,-94.0367,4.0,3.725976382,27.66515989,4.52,'11111222,11111222,11111222' 
TABS,ioos:station:wmo:42046:1,2016-09-02T21:30:00Z,27.8903,-94.0367,4.0,3.384567919,37.91922645,4.74,'11111222,11111222,11111222' 
TABS,ioos:station:wmo:42046:1,2016-09-02T22:00:00Z,27.8903,-94.0367,4.0,3.006659276,33.05553505,4.03,'11111222,11111222,11111222' 
TABS,ioos:station:wmo:42046:1,2016-09-02T22:30:00Z,27.8903,-94.0367,4.0,3.458106418,44.17955726,4.52,'11111222,11111222,11111222' 
TABS,ioos:station:wmo:42046:1,2016-09-02T23:00:00Z,27.8903,-94.0367,4.0,3.464173783,34.05675899,4.26,'11111222,11111222,11111222' 
TABS,ioos:station:wmo:42046:1,2016-09-02T23:30:00Z,27.8903,-94.0367,4.0,3.832975346,23.68902677,5.09,'11111222,11111222,11111222' 
TABS,ioos:station:wmo:42046:1,2016-09-03T00:00:00Z,27.8903,-94.0367,4.0,4.08682028,31.08369096,4.89,'11111222,11111222,11111222' 
TABS,ioos:station:wmo:42046:1,2016-09-03T00:30:00Z,27.8903,-94.0367,4.0,3.973134783,40.3037991,4.99,'11111222,11111222,11111222' 
TABS,ioos:station:wmo:42046:1,2016-09-03T01:00:00Z,27.8903,-94.0367,4.0,4.318448796,33.28499883,5.11,'11111222,11111222,11111222' 
TABS,ioos:station:wmo:42046:1,2016-09-03T01:30:00Z,27.8903,-94.0367,4.0,4.360332556,40.81477797,5.22,'11111222,11111222,11111222' 
TABS,ioos:station:wmo:42046:1,2016-09-03T02:00:00Z,27.8903,-94.0367,4.0,4.313374549,45.18753821,5.36,'11111222,11111222,11111222' 
TABS,ioos:station:wmo:42046:1,2016-09-03T02:30:00Z,27.8903,-94.0367,4.0,4.114328621,52.40560263,5.06,'11111222,11111222,11111222' 
TABS,ioos:station:wmo:42046:1,2016-09-03T03:00:00Z,27.8903,-94.0367,4.0,4.167505249,47.04161829,4.99,'11111222,11111222,11111222' 
TABS,ioos:station:wmo:42046:1,2016-09-03T03:30:00Z,27.8903,-94.0367,4.0,3.769615365,58.67095947,4.61,'11111222,11111222,11111222' 
TABS,ioos:station:wmo:42046:1,2016-09-03T04:00:00Z,27.8903,-94.0367,4.0,3.936051321,62.45805427,4.71,'11111222,11111222,11111222' 
TABS,ioos:station:wmo:42046:1,2016-09-03T04:30:00Z,27.8903,-94.0367,4.0,3.56117958,70.6488352,4.44,'11111222,11111222,11111222' 
TABS,ioos:station:wmo:42046:1,2016-09-03T05:00:00Z,27.8903,-94.0367,4.0,3.760850968,66.16089464,4.64,'11111222,11111222,11111222' 
TABS,ioos:station:wmo:42046:1,2016-09-03T05:30:00Z,27.8903,-94.0367,4.0,3.702769234,59.48703245,4.31,'11111222,11111222,11111222' 
TABS,ioos:station:wmo:42046:1,2016-09-03T06:00:00Z,27.8903,-94.0367,4.0,4.007804885,70.16308639,4.77,'11111222,11111222,11111222' 
TABS,ioos:station:wmo:42046:1,2016-09-03T06:30:00Z,27.8903,-94.0367,4.0,3.788416556,73.90880036,4.91,'11111222,11111222,11111222' 
TABS,ioos:station:wmo:42046:1,2016-09-03T07:00:00Z,27.8903,-94.0367,4.0,3.902870738,70.54330329,4.62,'11111222,11111222,11111222' 
TABS,ioos:station:wmo:42046:1,2016-09-03T07:30:00Z,27.8903,-94.0367,4.0,3.724003222,74.58256814,4.59,'11111222,11111222,11111222' 
TABS,ioos:station:wmo:42046:1,2016-09-03T08:00:00Z,27.8903,-94.0367,4.0,3.296209945,67.71404355,4.12,'11111222,11111222,11111222' 
TABS,ioos:station:wmo:42046:1,2016-09-03T08:30:00Z,27.8903,-94.0367,4.0,3.690975481,70.53375759,4.44,'11111222,11111222,11111222' 
TABS,ioos:station:wmo:42046:1,2016-09-03T09:00:00Z,27.8903,-94.0367,4.0,3.472635886,65.50106218,4.42,'11111222,11111222,11111222' 
TABS,ioos:station:wmo:42046:1,2016-09-03T09:30:00Z,27.8903,-94.0367,4.0,2.621907702,65.19397133,3.52,'11111222,11111222,11111222' 
TABS,ioos:station:wmo:42046:1,2016-09-03T10:00:00Z,27.8903,-94.0367,4.0,4.154864619,75.36133477,6.76,'11111222,11111222,11111222' 
TABS,ioos:station:wmo:42046:1,2016-09-03T10:30:00Z,27.8903,-94.0367,4.0,5.353298049,163.3932687,7.38,'11111222,11111222,11111222' 
TABS,ioos:station:wmo:42046:1,2016-09-03T11:00:00Z,27.8903,-94.0367,4.0,2.951829941,110.215647,3.73,'11111222,11111222,11111222' 
TABS,ioos:station:wmo:42046:1,2016-09-03T11:30:00Z,27.8903,-94.0367,4.0,4.243229902,82.82433476,6.0,'11111222,11111222,11111222' 
TABS,ioos:station:wmo:42046:1,2016-09-03T12:00:00Z,27.8903,-94.0367,4.0,1.782806776,86.78410261,2.52,'11111222,11111222,11111222' 
TABS,ioos:station:wmo:42046:1,2016-09-03T12:30:00Z,27.8903,-94.0367,4.0,4.034872984,29.55085714,5.48,'11111222,11111222,11111222' 
TABS,ioos:station:wmo:42046:1,2016-09-03T13:00:00Z,27.8903,-94.0367,4.0,3.557316404,43.9746231,4.63,'11111222,11111222,11111222' 
TABS,ioos:station:wmo:42046:1,2016-09-03T13:30:00Z,27.8903,-94.0367,4.0,4.217688941,25.71421644,5.58,'11111222,11111222,11111222' 
TABS,ioos:station:wmo:42046:1,2016-09-03T14:00:00Z,27.8903,-94.0367,4.0,4.550131866,42.77313684,5.84,'11111222,11111222,11111222' 
TABS,ioos:station:wmo:42046:1,2016-09-03T14:30:00Z,27.8903,-94.0367,4.0,3.530580689,65.3945127,4.83,'11111222,11111222,11111222' 
TABS,ioos:station:wmo:42046:1,2016-09-03T15:00:00Z,27.8903,-94.0367,4.0,5.890772445,67.43962143,7.47,'11111222,11111222,11111222' 
TABS,ioos:station:wmo:42046:1,2016-09-03T15:30:00Z,27.8903,-94.0367,4.0,5.002799216,68.66610335,6.61,'11111222,11111222,11111222' 
TABS,ioos:station:wmo:42046:1,2016-09-03T16:00:00Z,27.8903,-94.0367,4.0,3.400367627,56.63672342,4.88,'11111222,11111222,11111222' 
TABS,ioos:station:wmo:42046:1,2016-09-03T16:30:00Z,27.8903,-94.0367,4.0,3.260383413,62.80585647,4.16,'11111222,11111222,11111222' 
TABS,ioos:station:wmo:42046:1,2016-09-03T17:00:00Z,27.8903,-94.0367,4.0,3.715709892,71.32086358,4.36,'11111222,11111222,11111222' 
TABS,ioos:station:wmo:42046:1,2016-09-03T17:30:00Z,27.8903,-94.0367,4.0,4.038031699,66.03714614,5.04,'11111222,11111222,11111222' 
TABS,ioos:station:wmo:42046:1,2016-09-03T18:00:00Z,27.8903,-94.0367,4.0,3.766935094,60.23590147,4.9,'11111222,11111222,11111222' 
TABS,ioos:station:wmo:42046:1,2016-09-03T18:30:00Z,27.8903,-94.0367,4.0,3.492277194,53.85166771,4.41,'11111222,11111222,11111222' 
TABS,ioos:station:wmo:42046:1,2016-09-03T19:00:00Z,27.8903,-94.0367,4.0,3.480229877,37.52814261,4.49,'11111222,11111222,11111222' 
TABS,ioos:station:wmo:42046:1,2016-09-03T19:30:00Z,27.8903,-94.0367,4.0,3.372906758,44.87956783,4.21,'11111222,11111222,11111222' 
TABS,ioos:station:wmo:42046:1,2016-09-03T20:00:00Z,27.8903,-94.0367,4.0,2.304105032,37.41667818,2.95,'11111222,11111222,11111222' 
TABS,ioos:station:wmo:42046:1,2016-09-03T20:30:00Z,27.8903,-94.0367,4.0,3.317890896,81.33221217,4.67,'11111222,11111222,11111222' 
TABS,ioos:station:wmo:42046:1,2016-09-03T21:00:00Z,27.8903,-94.0367,4.0,4.658079003,95.05006765,5.45,'11111222,11111222,11111222' 
TABS,ioos:station:wmo:42046:1,2016-09-03T21:30:00Z,27.8903,-94.0367,4.0,3.959040288,74.7698818,6.27,'11111222,11111222,11111222' 
TABS,ioos:station:wmo:42046:1,2016-09-03T22:00:00Z,27.8903,-94.0367,4.0,3.936521307,75.4338489,4.84,'11111222,11111222,11111222' 
TABS,ioos:station:wmo:42046:1,2016-09-03T22:30:00Z,27.8903,-94.0367,4.0,3.348925201,71.18595413,4.31,'11111222,11111222,11111222' 
TABS,ioos:station:wmo:42046:1,2016-09-03T23:00:00Z,27.8903,-94.0367,4.0,3.346072324,81.57890324,4.1,'11111222,11111222,11111222' 
TABS,ioos:station:wmo:42046:1,2016-09-03T23:30:00Z,27.8903,-94.0367,4.0,3.286715686,93.66373968,4.27,'11111222,11111222,11111222' 
TABS,ioos:station:wmo:42046:1,2016-09-04T00:00:00Z,27.8903,-94.0367,4.0,3.190611227,85.3254263,4.07,'11111222,11111222,11111222' 
TABS,ioos:station:wmo:42046:1,2016-09-04T00:30:00Z,27.8903,-94.0367,4.0,4.060110836,90.42378005,4.83,'11111222,11111222,11111222' 
TABS,ioos:station:wmo:42046:1,2016-09-04T01:00:00Z,27.8903,-94.0367,4.0,3.199781243,85.51848381,3.86,'11111222,11111222,11111222' 
TABS,ioos:station:wmo:42046:1,2016-09-04T01:30:00Z,27.8903,-94.0367,4.0,4.219691932,132.1187387,7.44,'11111222,11111222,11111222' 
TABS,ioos:station:wmo:42046:1,2016-09-04T02:00:00Z,27.8903,-94.0367,4.0,3.496112126,52.67088786,4.72,'11111222,11111222,11111222' 
TABS,ioos:station:wmo:42046:1,2016-09-04T02:30:00Z,27.8903,-94.0367,4.0,3.441060883,81.13950441,4.53,'11111222,11111222,11111222' 
TABS,ioos:station:wmo:42046:1,2016-09-04T03:00:00Z,27.8903,-94.0367,4.0,2.844011252,77.82042651,3.87,'11111222,11111222,11111222' 
TABS,ioos:station:wmo:42046:1,2016-09-04T03:30:00Z,27.8903,-94.0367,4.0,2.498259394,76.57524042,3.68,'11111222,11111222,11111222' 
TABS,ioos:station:wmo:42046:1,2016-09-04T04:00:00Z,27.8903,-94.0367,4.0,2.346103152,79.93503441,3.08,'11111222,11111222,11111222' 
TABS,ioos:station:wmo:42046:1,2016-09-04T04:30:00Z,27.8903,-94.0367,4.0,2.294275485,93.4988573,3.55,'11111222,11111222,11111222' 
TABS,ioos:station:wmo:42046:1,2016-09-04T05:00:00Z,27.8903,-94.0367,4.0,2.135883892,83.00767009,2.81,'11111222,11111222,11111222' 
TABS,ioos:station:wmo:42046:1,2016-09-04T05:30:00Z,27.8903,-94.0367,4.0,2.687005769,81.86949574,4.01,'11111222,11111222,11111222' 
TABS,ioos:station:wmo:42046:1,2016-09-04T06:00:00Z,27.8903,-94.0367,4.0,3.888573003,102.9287441,4.97,'11111222,11111222,11111222' 
TABS,ioos:station:wmo:42046:1,2016-09-04T06:30:00Z,27.8903,-94.0367,4.0,4.606354307,116.843542,5.71,'11111222,11111222,11111222' 
TABS,ioos:station:wmo:42046:1,2016-09-04T07:00:00Z,27.8903,-94.0367,4.0,4.371555787,120.6718975,5.18,'11111222,11111222,11111222' 
TABS,ioos:station:wmo:42046:1,2016-09-04T07:30:00Z,27.8903,-94.0367,4.0,4.681815887,133.9618377,5.57,'11111222,11111222,11111222' 
TABS,ioos:station:wmo:42046:1,2016-09-04T08:00:00Z,27.8903,-94.0367,4.0,4.597260054,136.234185,5.22,'11111222,11111222,11111222' 
TABS,ioos:station:wmo:42046:1,2016-09-04T08:30:00Z,27.8903,-94.0367,4.0,5.139357937,146.5885038,6.11,'11111222,11111222,11111222' 
TABS,ioos:station:wmo:42046:1,2016-09-04T09:00:00Z,27.8903,-94.0367,4.0,5.283871687,146.9718743,6.26,'11111222,11111222,11111222' 
TABS,ioos:station:wmo:42046:1,2016-09-04T09:30:00Z,27.8903,-94.0367,4.0,5.078434798,159.6026706,6.27,'11111222,11111222,11111222' 
TABS,ioos:station:wmo:42046:1,2016-09-04T10:00:00Z,27.8903,-94.0367,4.0,5.209884836,160.139296,6.14,'11111222,11111222,11111222' 
TABS,ioos:station:wmo:42046:1,2016-09-04T10:30:00Z,27.8903,-94.0367,4.0,5.90736828,158.8652598,7.38,'11111222,11111222,11111222' 
TABS,ioos:station:wmo:42046:1,2016-09-04T11:00:00Z,27.8903,-94.0367,4.0,5.737264156,160.5546815,6.94,'11111222,11111222,11111222' 
TABS,ioos:station:wmo:42046:1,2016-09-04T11:30:00Z,27.8903,-94.0367,4.0,5.993212828,163.6214986,7.14,'11111222,11111222,11111222' 
TABS,ioos:station:wmo:42046:1,2016-09-04T12:00:00Z,27.8903,-94.0367,4.0,5.737813172,169.9633315,6.9,'11111222,11111222,11111222' 
TABS,ioos:station:wmo:42046:1,2016-09-04T12:30:00Z,27.8903,-94.0367,4.0,4.573488821,168.3954752,5.86,'11111222,11111222,11111222' 
TABS,ioos:station:wmo:42046:1,2016-09-04T13:00:00Z,27.8903,-94.0367,4.0,5.031709451,167.3726253,6.27,'11111222,11111222,11111222' 
TABS,ioos:station:wmo:42046:1,2016-09-04T13:30:00Z,27.8903,-94.0367,4.0,4.892003679,181.6401286,5.98,'11111222,11111222,11111222' 
TABS,ioos:station:wmo:42046:1,2016-09-04T14:00:00Z,27.8903,-94.0367,4.0,3.997224037,169.4774375,5.02,'11111222,11111222,11111222' 
TABS,ioos:station:wmo:42046:1,2016-09-04T14:30:00Z,27.8903,-94.0367,4.0,4.169844122,169.49875,5.05,'11111222,11111222,11111222' 
TABS,ioos:station:wmo:42046:1,2016-09-04T15:00:00Z,27.8903,-94.0367,4.0,4.452527372,167.680794,5.43,'11111222,11111222,11111222' 
TABS,ioos:station:wmo:42046:1,2016-09-04T15:30:00Z,27.8903,-94.0367,4.0,4.237275068,156.6418789,5.13,'11111222,11111222,11111222' 
TABS,ioos:station:wmo:42046:1,2016-09-04T16:00:00Z,27.8903,-94.0367,4.0,3.861515247,162.3629813,4.87,'11111222,11111222,11111222' 
TABS,ioos:station:wmo:42046:1,2016-09-04T16:30:00Z,27.8903,-94.0367,4.0,3.950923943,165.788139,5.06,'11111222,11111222,11111222' 
TABS,ioos:station:wmo:42046:1,2016-09-04T17:00:00Z,27.8903,-94.0367,4.0,4.145600077,159.379509,5.06,'11111222,11111222,11111222' 
TABS,ioos:station:wmo:42046:1,2016-09-04T17:30:00Z,27.8903,-94.0367,4.0,3.891015292,152.7766798,4.77,'11111222,11111222,11111222' 
TABS,ioos:station:wmo:42046:1,2016-09-04T18:00:00Z,27.8903,-94.0367,4.0,4.232930427,147.2487951,5.25,'11111222,11111222,11111222' 
TABS,ioos:station:wmo:42046:1,2016-09-04T18:30:00Z,27.8903,-94.0367,4.0,5.404313092,150.6367504,6.59,'11111222,11111222,11111222' 